Hourly Weather Roundup
Issued by NWS Central Illinois

Home | Current Version | Previous Version | Text Only | Print | Product List | Glossary On
Versions: 1 2 3 4 5 6 7 8 9 10 11 12 13 14 15 16 17 18 19 20 21 22 23 24 25 26 27 28 29 30 31 32 33 34 35 36 37 38 39 40 41 42 43 44 45 46 47 48 49 50
000
NZUS43 KILX 270210
HWRILX

AREA WEATHER ROUNDUP
NATIONAL WEATHER SERVICE, LINCOLN IL
800 PM CST WED NOV 26 2014


CITY           SKY/WX    TMP DP  RH WIND       PRES   REMARKS
BLOOMINGTON    CLOUDY    26  24  92 NE9       30.13R WCI  17
CHAMPAIGN      LGT SNOW  29  25  85 N12       30.10R FOG     WCI  19
DECATUR        LGT SNOW  29  26  89 NE8       30.11R FOG     WCI  21
FLORA          MIX PCPN  32  32 100 NE5       30.08R WCI  27
GALESBURG      LGT SNOW  27  25  93 N14       30.17R WCI  15
JACKSONVILLE   LGT SNOW  31  29  92 NE8       30.11R WCI  24
LACON          CLOUDY    27  21  80 N8        30.17R WCI  18
LAWRENCEVILLE  LGT SNOW  32  31  96 N8        30.08S FOG     WCI  25
LITCHFIELD     LGT SNOW  31  29  93 E7        30.07R WCI  24
$$


CITY           SKY/WX    TMP DP  RH WIND       PRES   REMARKS
LINCOLN        LGT SNOW  30  28  91 N8        30.14R WCI  22
MACOMB         LGT SNOW  28  28  96 NE12      30.18R WCI  18
MATTOON        CLOUDY    30  25  81 N5        30.08R WCI  25
MT CARMEL AP   LGT SNOW  36  32  87 CALM      30.06S
OLNEY-NOBLE AP LGT SNOW  32  32 100 CALM      30.08R VSB 1
PARIS          CLOUDY    31  28  87 N3        30.09R
PEORIA         LGT SNOW  29  23  78 NE9       30.16R WCI  20
PONTIAC        CLOUDY    28  24  84 N8        30.16R WCI  20
RANTOUL        CLOUDY    30  24  80 NE8       30.11R WCI  22
ROBINSON       CLOUDY    32  31  96 NW3       30.09S
SPRINGFIELD    LGT SNOW  29  27  92 NE10      30.11R FOG     WCI  20
TAYLORVILLE    LGT SNOW  30  28  93 NE7       30.10R WCI  23
$$

...REGIONAL REPORTS...


CITY           SKY/WX    TMP DP  RH WIND       PRES   REMARKS
CHICAGO O`HARE CLOUDY    29  23  78 N7        30.14R WCI  22
KANKAKEE       CLOUDY   N/A N/A N/A N8        30.15R
MOLINE         CLOUDY    28  20  71 N9        30.20R WCI  19
MOUNT VERNON   CLOUDY    34  28  80 N3        30.06S
PITTSFIELD     CLOUDY    32  31  98 N9        30.11R WCI  24
QUINCY         CLOUDY    31  28  89 NE14      30.12R FOG     WCI  21
ROCKFORD       CLOUDY    24  19  81 N9        30.20R HAZE    WCI  14
$$


CITY           SKY/WX    TMP DP  RH WIND       PRES   REMARKS
BURLINGTON     LGT SNOW  29  27  92 NE12      30.17R FOG     WCI  19
CEDAR RAPIDS   LGT SNOW  27  25  92 N9        30.21R FOG     WCI  18
DES MOINES     LGT SNOW  29  25  85 N13       30.28R FOG     WCI  19
KIRKSVILLE     LGT SNOW  32  30  92 N13       30.17R FOG     WCI  22
OTTUMWA        LGT SNOW  28  26  92 N8        30.22R FOG     WCI  20
ST LOUIS       LGT SNOW  34  32  92 CALM      30.08R
$$


CITY           SKY/WX    TMP DP  RH WIND       PRES   REMARKS
TERRE HAUTE    CLOUDY    32  25  75 N5        30.07S WCI  27
EVANSVILLE     LGT SNOW  33  31  92 NE5       30.05F VSB 1   WCI  29
INDIANAPOLIS   MOCLDY    28  22  78 NE10      30.06S WCI  19
LAFAYETTE      MOCLDY    25  20  81 NE5       30.11R WCI  19
MADISON        MOCLDY    17  14  88 NW3       30.20R
MILWAUKEE      CLOUDY    27  20  75 NW10      30.15S WCI  17
$$




USA.gov is the U.S. government's official web portal to all federal, state and local government web resources and services.